DELTA 1 DEB, 4499

Orbit data source: Space-Track

DELTA 1 DEB, 4499 is space debris in SSO originally from a launch on Fri, 16 Aug 1968 UTC launched from the Air Force Western Test Range (AFWTR). Debris objects in space refer to the collection of defunct objects orbiting the Earth. Examples of debris include non-operational satellites, rocket bodies, and fragments generated from explosions, collisions, or faulty payload assembly.

Loading next visibility...
Identifier
4499, 1968-069G
Orbit
SSO
Country
Flag of USUS
Related business
Manufacturer
Unknown
Mission
Spacecraft
Bus & Motor
Unknown
Mass
Unknown
Launch date (UTC)
1968-08-16 (57 years ago)
Launch vehicle
Unknown
Launch site
Air Force Western Test Range (AFWTR)
Object type
Payload
Rocket body
Debris
Shape & HBR
Unknown shape, 0.1 m
Radar Cross Section
Small (<0.1 m²)

Expand to show TLE details & history
Last TLE update: 7 hours ago

TLE from 7 hours ago
0 DELTA 1 DEB
1  4499U 68069G   26036.50137804 -.00000038  00000-0  29558-4 0  9995
2  4499 101.3584  53.8442 0027962 253.4170 265.7169 12.51295803626785
Epoch: 2026-02-05T12:01Z
TLE epoch observation values (Epoch: 2026-02-05T12:01:59.062Z)
Latitude
20.75976°
Longitude
-77.95902°
Altitude
1,463.049 km
Speed
7.132 km/s
True Right ascension
15h 52m 45s
True Declination
20° 39' 23"
Sunlit
Object was in daylight at epoch
Visualization orbit readout
Latitude
Unknown
Longitude
Unknown
Altitude
Unknown
Speed
Unknown
Apparent Right ascension
Unknown
Apparent Declination
Unknown
Sunlit
N/A
Visualization observer readout
Local Sidereal Time
21:09:28
Azimuth
Unknown
Elevation
Unknown
Doppler factor
Unknown
Orbital elements
Apogee altitude
1,478.51 km
Perigee altitude
1,434.695 km
Semi-major axis
7,834.739 km
Eccentricity
0.0028
Inclination
101.3584°
RAAN
53.8442°
Arg. of periapsis
253.417°
True anomaly
265.39746°
Mean anomaly
265.7169°
Eccentric anomaly
265.55717°
Mean motion
3.12973 °/min
Orbital period
115.03 mins
BSTAR
0.000029558
Loading maneuver chart data...
Computing Atmospheric mass density...
Loading historical data...
Loading historical data...
Loading historical data...
Loading historical data...
Loading historical data...
Loading historical data...
Loading historical data...

Documentation

Showing up to 5 results
|